IRIDIUM 95 [+] (27375 NORAD) Tracking and Keplerian Element Data

This shows tracking and keplerian element data for the satellite.

Feedback or suggestion? Click here.




ElementValue
Catalog27375
NameIRIDIUM 95 [+]
Epoch Orbit88908
Epoch Day348.78500853
Epoch Year2018
RAAN59.1559
Inclination86.3976
Eccentricity0.000289
Argument of Perigee101.3722
Mean Anonmoly258.7798
Mean Motion14.34223192
Decay Rate1.71E-06
L11 27375U 02005D 18348.78500853 .00000171 00000-0 53906-4 0 9997
L22 27375 86.3976 59.1559 0002890 101.3722 258.7798 14.34223192889084

Live tracking and technical data element details for IRIDIUM 95 [+] (NORAD 27375). IRIDIUM 95 [+] can be tracked NOW for your location showing map with azimuth and elevation plus other details from your city location.

Track the satellite on the map from your city or location and see movement details for azimuth, elevation, latitude, longitude, range, height, and movement on the map or in text.







IsCatalogInMostPopularTable: catalog: 27375, numindb: 67
Update: records affected: 1



GetName: 27375 IRIDIUM 95 [+]

Hit Count: updated at: Sat, 15 Dec 2018 18:44:20 GMT